Content
SEND FEEDBACK

Daily
Averages
Monthly
Summary
Canada

MONTREAL, QUEBEC


Home > North America > Canada > Quebec
Elevation: 118 feet     Latitude: 45 28N     Longitude: 073 45W

WEATHER
 
SELECT A DAY
Number of Records: 203,377;   Date Range: 1/1/95 - 12/18/14
 
SHARE

PRINT THIS DATA

[ ← Previous Day ]
WEATHER ALMANAC - MAY 23, 2013
[ Next Day → ]
[ °C ]   °F
Weather ElementAverageHighLow
Temperature67 °F71.6 °F (12:00 pm)57.2 °F (11:29 pm)
Dewpoint62.8 °F66.2 °F (1:42 pm)53.6 °F (11:29 pm)
Humidity86.5 %100 % (1:19 am)73 % (12:45 pm)
Barometer29.68 in29.77 in (11:00 pm)29.62 in (12:10 am)
Wind Speed11 mph25.3 mph (12:44 am)
Wind Gust33.4 mph (12:44 am)
Weather ElementAverage
Visibility12.5 mi
Wind DirectionS (183.3 °)

Weather ElementTotal
Precipitation---
Heating Degree Days0.6 (Base 65)
Growing Degree Days14.4 (Base 50)
Averaged from 46 records on May 23, 2013
WEATHER CONDITIONS BREAKOUT
WIND DIRECTION BREAKOUT
WEATHER BY HOUR - MAY 23, 2013
[ °C ]   °F
Local TimeTemperatureDewpointHumidityBarometerVisibilityWind DirectionWind SpeedGust SpeedPrecipitationEventsConditions
12:10 AM66.2 °F64.4 °F94 %29.62 in4.0 miESE (110°)3.5 mphRain-ThunderstormThunderstorms and Rain
12:44 AM66.2 °F62.6 °F88 %29.68 in4.0 miSSW (200°)25.3 mph33.4 mphRain-ThunderstormThunderstorms and Rain
1:00 AM64.4 °F62.6 °F94 %29.67 in8.0 miSW (220°)13.8 mph24.2 mphRain-ThunderstormLight Thunderstorms and Rain
1:19 AM64.4 °F64.4 °F100 %29.66 in10.0 miSSW (200°)11.5 mph19.6 mphRainLight Rain Showers
1:42 AM64.4 °F64.4 °F100 %29.67 in15.0 miSW (220°)9.2 mphOvercast
2:00 AM64.4 °F62.6 °F94 %29.66 in15.0 miSSW (210°)10.4 mphMostly Cloudy
2:00 AM64.0 °F63.0 °F96 %29.66 in15.0 miSSW (210°)8.1 mphThunderstormLight Thunderstorm
3:00 AM64.4 °F64.4 °F100 %29.66 in15.0 miSW (220°)8.1 mphOvercast
4:00 AM64.4 °F64.4 °F100 %29.65 in15.0 miSouth (190°)3.5 mphOvercast
5:00 AM64.4 °F64.4 °F100 %29.66 in10.0 miSSW (210°)3.5 mphOvercast
6:00 AM64.4 °F62.6 °F94 %29.67 in15.0 miSouth (170°)5.8 mphOvercast
7:00 AM68.0 °F64.4 °F88 %29.68 in15.0 miSouth (180°)8.1 mphOvercast
8:00 AM68.0 °F62.0 °F77 %29.68 in15.0 miSouth (190°)9.2 mphOvercast
8:00 AM68.0 °F62.6 °F83 %29.68 in15.0 miSouth (190°)9.2 mphOvercast
8:05 AM68.0 °F62.6 °F83 %29.68 in15.0 miSSW (200°)10.4 mphRainLight Rain Showers
9:00 AM66.2 °F62.6 °F88 %29.70 in12.0 miSSW (210°)10.4 mphRainLight Rain
10:00 AM68.0 °F64.4 °F88 %29.70 in12.0 miSSW (210°)13.8 mphRainLight Rain
11:00 AM69.8 °F62.6 °F78 %29.70 in12.0 miSW (220°)16.1 mphRainLight Rain
11:48 AM69.8 °F64.4 °F83 %29.70 in12.0 miSSW (210°)13.8 mphOvercast
12:00 PM71.6 °F64.4 °F78 %29.70 in12.0 miSSW (210°)13.8 mphOvercast
12:45 PM71.6 °F62.6 °F73 %29.68 in12.0 miSW (230°)8.1 mphRainLight Rain Showers
12:50 PM69.8 °F64.4 °F83 %29.69 in4.0 miWSW (250°)15.0 mph23.0 mphRain-ThunderstormLight Thunderstorms and Rain
1:00 PM68.0 °F64.4 °F88 %29.70 in3.0 miSSW (210°)15.0 mph28.8 mphRain-ThunderstormLight Thunderstorms and Rain
1:20 PM66.2 °F64.4 °F94 %29.69 in10.0 miSSW (200°)10.4 mphRainLight Rain Showers
1:42 PM68.0 °F66.2 °F94 %29.67 in15.0 miSSW (200°)10.4 mphMostly Cloudy
2:00 PM70.0 °F66.0 °F83 %29.67 in15.0 miSW (220°)10.4 mphThunderstormLight Thunderstorm
2:00 PM69.8 °F66.2 °F88 %29.67 in15.0 miSW (220°)11.5 mphMostly Cloudy
3:00 PM71.6 °F64.4 °F78 %29.67 in15.0 miSSW (210°)11.5 mphOvercast
3:45 PM71.6 °F64.4 °F78 %29.66 in15.0 miWSW (250°)10.4 mphRainLight Rain Showers
4:00 PM71.6 °F66.2 °F83 %29.66 in15.0 miSSW (210°)8.1 mphRainLight Rain Showers
4:21 PM69.8 °F64.4 °F83 %29.65 in15.0 miSSW (200°)12.7 mphOvercast
4:32 PM69.8 °F64.4 °F83 %29.65 in15.0 miSSW (200°)8.1 mphRainLight Rain Showers
5:00 PM69.8 °F62.6 °F78 %29.65 in15.0 miSW (230°)15.0 mphOvercast
5:08 PM71.6 °F64.4 °F78 %29.65 in15.0 miSSW (210°)11.5 mphRainLight Rain Showers
5:26 PM71.6 °F62.6 °F73 %29.65 in15.0 miSW (220°)11.5 mphMostly Cloudy
6:00 PM69.8 °F62.6 °F78 %29.67 in15.0 miSW (220°)11.5 mph18.4 mphOvercast
7:00 PM69.8 °F62.6 °F78 %29.68 in15.0 miWest (260°)5.8 mphOvercast
8:00 PM68.0 °F63.0 °F78 %29.70 in15.0 miWest (280°)9.2 mphPartly Cloudy
8:00 PM68.0 °F62.6 °F83 %29.70 in15.0 miWest (280°)9.2 mphOvercast
8:30 PM66.2 °F60.8 °F83 %29.71 in15.0 miNorth (10°)12.7 mphOvercast
9:00 PM62.6 °F59.0 °F88 %29.73 in15.0 miNNE (30°)15.0 mphOvercast
9:10 PM62.6 °F59.0 °F88 %29.73 in15.0 miNNE (20°)11.5 mph20.7 mphRainLight Rain Showers
10:00 PM60.8 °F57.2 °F88 %29.75 in15.0 miNNE (30°)15.0 mphRainLight Rain Showers
10:46 PM59.0 °F55.4 °F88 %29.76 in4.0 miNE (40°)13.8 mph19.6 mphLight Drizzle
11:00 PM59.0 °F57.2 °F94 %29.77 in4.0 miNorth (10°)10.4 mphLight Drizzle
11:29 PM57.2 °F53.6 °F88 %29.77 in5.0 miNorth (10°)12.7 mph20.7 mphLight Drizzle
Hourly data recorded from CYUL, located miles away from Montreal, Quebec







STORIES FROM OUR PARTNERS